DW9169 Weather Reports


Display with metric or nautical units.
time (UTC)temp
F
wind
direction
speed
MPH
gust
MPH
rain 1hr
in
rain 24hr
in
rain mn
in
humidity
%
barometer
mb
20260510031411 51 50 2.0 7.0 0.00 0.00 0.00 84 1011.9
20260510030910 51 54 2.0 6.0 0.00 0.00 0.00 85 1012.0
20260510030411 51 31 1.0 6.0 0.00 0.00 0.00 85 1012.1
20260510025411 51 61 1.0 3.0 0.00 0.00 0.00 85 1012.2
20260510024410 51 51 2.0 5.0 0.00 0.00 0.00 84 1012.4
20260510022910 51 31 1.0 3.0 0.00 0.00 0.00 84 1012.4
20260510021910 51 47 1.0 2.0 0.00 0.00 0.00 83 1012.5
20260510021410 52 66 1.0 5.0 0.00 0.00 0.00 83 1012.5
20260510020410 52 46 2.0 6.0 0.00 0.00 0.00 83 1012.3
20260510015910 52 28 1.0 5.0 0.00 0.00 0.00 83 1012.3
20260510015410 52 53 2.0 7.0 0.00 0.00 0.00 83 1012.3
20260510014410 52 46 2.0 5.0 0.00 0.00 0.00 84 1012.4
20260510013910 52 38 2.0 3.0 0.00 0.00 0.00 84 1012.4
20260510013410 51 57 1.0 3.0 0.00 0.00 0.00 85 1012.5
20260510012410 51 49 1.0 5.0 0.00 0.00 0.00 85 1012.5
20260510011909 51 45 2.0 3.0 0.00 0.00 0.00 85 1012.6
20260510011410 51 58 2.0 5.0 0.00 0.00 0.00 85 1012.7
20260510010910 51 54 1.0 5.0 0.00 0.00 0.00 85 1012.8
20260510010410 51 33 1.0 3.0 0.00 0.00 0.00 85 1012.8
20260510005910 51 44 1.0 6.0 0.00 0.00 0.00 85 1012.8
20260510005410 51 62 0.0 3.0 0.00 0.00 0.00 85 1012.8
20260510004910 51 60 2.0 5.0 0.00 0.00 0.00 85 1013.0
20260510004410 51 45 1.0 3.0 0.00 0.00 0.00 84 1013.0
20260510003910 52 42 1.0 2.0 0.00 0.00 0.00 84 1013.1
20260510003410 52 32 0.0 1.0 0.00 0.00 0.00 83 1013.2
20260510002910 52 34 1.0 3.0 0.00 0.00 0.00 83 1013.2
20260510002410 52 59 1.0 5.0 0.00 0.00 0.00 83 1013.2
20260510001911 52 53 1.0 5.0 0.00 0.00 0.00 82 1013.2
20260510001410 52 65 2.0 3.0 0.00 0.00 0.00 82 1013.2
20260510000909 53 63 2.0 7.0 0.00 0.00 0.00 81 1013.3
20260509235409 54 93 0.0 7.0 0.00 0.00 0.00 80 1013.3
20260509234910 54 36 2.0 5.0 0.00 0.00 0.00 80 1013.3
20260509234410 54 66 2.0 6.0 0.00 0.00 0.00 80 1013.3
20260509233910 54 36 1.0 3.0 0.00 0.00 0.00 80 1013.3
20260509233410 54 49 2.0 6.0 0.00 0.00 0.00 81 1013.3
20260509232910 53 38 1.0 5.0 0.00 0.00 0.00 81 1013.3
20260509232409 53 46 2.0 7.0 0.00 0.00 0.00 81 1013.4
20260509231910 53 71 1.0 5.0 0.00 0.00 0.00 81 1013.4
20260509231410 53 46 0.0 5.0 0.00 0.00 0.00 81 1013.3
20260509230910 53 61 1.0 3.0 0.00 0.00 0.00 81 1013.3
20260509230410 53 51 3.0 6.0 0.00 0.00 0.00 82 1013.3
20260509225910 53 48 0.0 2.0 0.00 0.00 0.00 82 1013.3
20260509225410 53 35 1.0 6.0 0.00 0.00 0.00 82 1013.4
20260509224910 53 56 3.0 6.0 0.00 0.00 0.00 81 1013.4
20260509224410 53 50 3.0 7.0 0.00 0.00 0.00 82 1013.4
20260509223409 53 38 2.0 7.0 0.00 0.00 0.00 82 1013.5
20260509222909 53 26 0.0 2.0 0.00 0.00 0.00 82 1013.5
20260509222409 53 59 2.0 3.0 0.00 0.00 0.00 82 1013.5
20260509221410 53 34 2.0 7.0 0.00 0.00 0.00 83 1013.6
20260509220910 53 54 3.0 7.0 0.00 0.00 0.00 83 1013.6
20260509220409 54 53 2.0 7.0 0.00 0.00 0.00 83 1013.6
20260509215909 54 32 1.0 3.0 0.00 0.00 0.00 82 1013.6
20260509215410 54 54 1.0 3.0 0.00 0.00 0.00 81 1013.6
20260509214910 54 11 0.0 2.0 0.00 0.00 0.00 81 1013.7
20260509214410 54 48 1.0 3.0 0.00 0.00 0.00 81 1013.6
20260509213910 54 36 0.0 2.0 0.00 0.00 0.00 81 1013.5
20260509212910 54 44 2.0 5.0 0.00 0.00 0.00 80 1013.5
20260509212410 54 43 1.0 5.0 0.00 0.00 0.00 80 1013.5
20260509211910 54 42 2.0 3.0 0.00 0.00 0.00 80 1013.6
20260509211410 54 62 1.0 5.0 0.00 0.00 0.00 81 1013.6
20260509210910 55 41 2.0 8.0 0.00 0.00 0.00 80 1013.5
20260509210409 55 23 1.0 2.0 0.00 0.00 0.00 80 1013.5
20260509205910 55 68 1.0 5.0 0.00 0.00 0.00 80 1013.5
20260509204914 56 41 1.0 3.0 0.00 0.00 0.00 79 1013.5
20260509204413 56 53 2.0 3.0 0.00 0.00 0.00 79 1013.6
20260509203914 56 46 0.0 1.0 0.00 0.00 0.00 78 1013.7
20260509203413 56 46 0.0 2.0 0.00 0.00 0.00 76 1013.6
20260509202414 57 47 0.0 2.0 0.00 0.00 0.00 75 1013.7
20260509201914 57 54 1.0 3.0 0.00 0.00 0.00 74 1013.6
20260509200913 58 48 2.0 3.0 0.00 0.00 0.00 71 1013.5
20260509200414 59 48 2.0 3.0 0.00 0.00 0.00 70 1013.5
20260509195910 59 67 2.0 3.0 0.00 0.00 0.00 70 1013.4
20260509194910 60 50 1.0 3.0 0.00 0.00 0.00 68 1013.5
20260509193909 61 63 2.0 3.0 0.00 0.00 0.00 66 1013.4
20260509193410 61 44 2.0 5.0 0.00 0.00 0.00 66 1013.4
20260509192910 61 54 2.0 3.0 0.00 0.00 0.00 65 1013.3
20260509192409 62 32 1.0 3.0 0.00 0.00 0.00 64 1013.3
20260509191910 62 55 2.0 3.0 0.00 0.00 0.00 63 1013.3
20260509191410 62 59 2.0 3.0 0.00 0.00 0.00 63 1013.3
20260509190910 63 42 1.0 3.0 0.00 0.00 0.00 62 1013.3
20260509190410 63 53 1.0 3.0 0.00 0.00 0.00 61 1013.2
20260509185909 63 39 3.0 5.0 0.00 0.00 0.00 60 1013.2
20260509185410 64 36 2.0 3.0 0.00 0.00 0.00 61 1013.2
20260509184909 64 65 2.0 7.0 0.00 0.00 0.00 59 1013.1
20260509184410 64 52 1.0 7.0 0.00 0.00 0.00 58 1013.1
20260509183910 65 48 2.0 7.0 0.00 0.00 0.00 58 1013.1
20260509183410 65 65 2.0 3.0 0.00 0.00 0.00 58 1013.1
20260509182910 65 48 0.0 3.0 0.00 0.00 0.00 59 1013.1
20260509182409 66 59 1.0 3.0 0.00 0.00 0.00 56 1013.1
20260509181910 66 48 1.0 5.0 0.00 0.00 0.00 57 1013.1
20260509181410 66 42 1.0 5.0 0.00 0.00 0.00 57 1013.1
20260509175910 67 53 2.0 6.0 0.00 0.00 0.00 55 1013.0
20260509174910 68 54 2.0 9.0 0.00 0.00 0.00 54 1012.9
20260509174410 68 52 3.0 7.0 0.00 0.00 0.00 56 1013.0
20260509173909 68 65 1.0 3.0 0.00 0.00 0.00 56 1013.0
20260509173410 68 44 1.0 8.0 0.00 0.00 0.00 54 1013.0
20260509172910 69 51 2.0 8.0 0.00 0.00 0.00 54 1013.1
20260509172409 69 43 3.0 9.0 0.00 0.00 0.00 51 1013.1
20260509171909 70 35 1.0 8.0 0.00 0.00 0.00 53 1013.1
20260509171410 70 57 3.0 8.0 0.00 0.00 0.00 56 1013.0
20260509170910 70 49 0.0 3.0 0.00 0.00 0.00 56 1012.9
20260509170409 70 43 3.0 7.0 0.00 0.00 0.00 53 1012.9
20260509165910 71 49 3.0 9.0 0.00 0.00 0.00 52 1012.9
20260509165410 71 45 2.0 3.0 0.00 0.00 0.00 54 1013.0
20260509164909 71 18 3.0 9.0 0.00 0.00 0.00 56 1013.0
20260509164410 71 55 1.0 8.0 0.00 0.00 0.00 55 1013.0
20260509163910 71 55 2.0 8.0 0.00 0.00 0.00 56 1013.0
20260509162910 71 53 5.0 8.0 0.00 0.00 0.00 53 1013.0
20260509162409 71 25 1.0 7.0 0.00 0.00 0.00 53 1012.9
20260509161910 71 46 3.0 10.0 0.00 0.00 0.00 52 1012.9
20260509161410 71 44 4.0 9.0 0.00 0.00 0.00 53 1012.9
20260509160909 72 64 2.0 5.0 0.00 0.00 0.00 56 1012.9
20260509155909 72 20 3.0 8.0 0.00 0.00 0.00 54 1012.9
20260509155410 72 47 2.0 9.0 0.00 0.00 0.00 53 1012.9
20260509154409 72 38 3.0 12.0 0.00 0.00 0.00 52 1013.0
20260509153910 72 62 2.0 8.0 0.00 0.00 0.00 52 1013.0
20260509153409 73 25 1.0 7.0 0.00 0.00 0.00 56 1013.0
20260509152909 72 27 3.0 9.0 0.00 0.00 0.00 54 1013.0
20260509152409 72 38 3.0 9.0 0.00 0.00 0.00 52 1013.1
20260509151410 72 41 3.0 9.0 0.00 0.00 0.00 55 1013.1
20260509150909 71 38 2.0 8.0 0.00 0.00 0.00 53 1013.2
20260509150410 72 66 3.0 9.0 0.00 0.00 0.00 51 1013.3
20260509145909 71 52 2.0 5.0 0.00 0.00 0.00 57 1013.2
20260509145409 71 12 3.0 8.0 0.00 0.00 0.00 53 1013.3
20260509144410 71 51 3.0 12.0 0.00 0.00 0.00 52 1013.4
20260509143910 73 44 5.0 12.0 0.00 0.00 0.00 49 1013.4
20260509143410 73 53 5.0 8.0 0.00 0.00 0.00 53 1013.4
20260509142910 73 68 1.0 5.0 0.00 0.00 0.00 57 1013.5
20260509142409 72 74 2.0 9.0 0.00 0.00 0.00 53 1013.5
20260509141909 73 25 3.0 8.0 0.00 0.00 0.00 50 1013.5
20260509141409 73 46 5.0 9.0 0.00 0.00 0.00 50 1013.5
20260509140910 73 59 3.0 8.0 0.00 0.00 0.00 58 1013.6
20260509140410 72 45 3.0 7.0 0.00 0.00 0.00 53 1013.7
20260509135909 72 41 2.0 5.0 0.00 0.00 0.00 54 1013.7
20260509135409 71 63 3.0 7.0 0.00 0.00 0.00 53 1013.7
20260509134910 71 51 1.0 5.0 0.00 0.00 0.00 56 1013.8
20260509134410 70 49 5.0 9.0 0.00 0.00 0.00 54 1013.8
20260509133910 70 79 2.0 10.0 0.00 0.00 0.00 57 1013.9
20260509132910 70 35 3.0 7.0 0.00 0.00 0.00 57 1014.1
20260509132409 70 58 2.0 9.0 0.00 0.00 0.00 54 1014.2
20260509131909 71 57 4.0 10.0 0.00 0.00 0.00 53 1014.2
20260509131410 71 63 5.0 9.0 0.00 0.00 0.00 53 1014.2
20260509130909 71 54 2.0 7.0 0.00 0.00 0.00 55 1014.1
20260509130410 70 300 2.0 5.0 0.00 0.00 0.00 61 1014.1
20260509125910 70 106 1.0 2.0 0.00 0.00 0.00 61 1014.2
20260509125410 70 62 1.0 3.0 0.00 0.00 0.00 54 1014.2
20260509124909 70 36 2.0 6.0 0.00 0.00 0.00 55 1014.3
20260509124410 70 46 2.0 7.0 0.00 0.00 0.00 54 1014.3
20260509123910 71 41 2.0 9.0 0.00 0.00 0.00 52 1014.3
20260509123409 71 30 1.0 8.0 0.00 0.00 0.00 52 1014.3
20260509122909 71 76 1.0 2.0 0.00 0.00 0.00 61 1014.4
20260509122410 70 117 2.0 5.0 0.00 0.00 0.00 54 1014.5
20260509121909 70 72 4.0 8.0 0.00 0.00 0.00 54 1014.6
20260509121410 70 54 3.0 7.0 0.00 0.00 0.00 54 1014.7
20260509120410 70 44 7.0 13.0 0.00 0.00 0.00 53 1014.7
20260509115410 71 45 1.0 5.0 0.00 0.00 0.00 54 1014.9
20260509114910 71 43 3.0 10.0 0.00 0.00 0.00 54 1014.9
20260509114409 72 47 5.0 9.0 0.00 0.00 0.00 55 1015.0
20260509113909 72 46 5.0 9.0 0.00 0.00 0.00 53 1015.1
20260509113410 72 105 2.0 5.0 0.00 0.00 0.00 51 1015.1
20260509112910 72 184 2.0 9.0 0.00 0.00 0.00 54 1015.2
20260509112410 71 101 3.0 7.0 0.00 0.00 0.00 55 1015.2
20260509111909 71 139 2.0 5.0 0.00 0.00 0.00 51 1015.2
20260509111409 71 328 2.0 7.0 0.00 0.00 0.00 52 1015.2
20260509110909 70 124 3.0 7.0 0.00 0.00 0.00 49 1015.2
20260509105910 70 104 5.0 9.0 0.00 0.00 0.00 54 1015.4
20260509104910 70 199 2.0 8.0 0.00 0.00 0.00 51 1015.5
20260509103410 69 175 4.0 9.0 0.00 0.00 0.00 54 1015.5
20260509102410 69 63 1.0 8.0 0.00 0.00 0.00 61 1015.5
20260509101910 69 44 4.0 10.0 0.00 0.00 0.00 60 1015.6
20260509101409 69 71 5.0 13.0 0.00 0.00 0.00 61 1015.6
20260509100909 68 72 1.0 6.0 0.00 0.00 0.00 57 1015.6
20260509100409 69 50 3.0 9.0 0.00 0.00 0.00 60 1015.7
20260509095409 68 55 1.0 7.0 0.00 0.00 0.00 58 1015.8
20260509094909 68 54 1.0 8.0 0.00 0.00 0.00 59 1015.8
20260509093909 68 56 5.0 9.0 0.00 0.00 0.00 60 1015.8
20260509093410 67 49 3.0 9.0 0.00 0.00 0.00 64 1015.8
20260509092910 67 102 4.0 8.0 0.00 0.00 0.00 65 1015.9
20260509092409 67 86 1.0 8.0 0.00 0.00 0.00 60 1015.9
20260509091409 66 51 4.0 9.0 0.00 0.00 0.00 64 1015.9
20260509090910 66 53 3.0 6.0 0.00 0.00 0.00 65 1015.9
20260509090410 66 57 3.0 9.0 0.00 0.00 0.00 65 1015.8
20260509084910 65 53 3.0 10.0 0.00 0.00 0.00 70 1015.9
20260509084409 64 74 3.0 6.0 0.00 0.00 0.00 69 1015.8
20260509083409 63 59 1.0 5.0 0.00 0.00 0.00 69 1016.0
20260509082909 63 66 3.0 7.0 0.00 0.00 0.00 70 1016.0
20260509082410 63 57 4.0 7.0 0.00 0.00 0.00 72 1016.0
20260509081909 62 78 4.0 7.0 0.00 0.00 0.00 72 1016.0
20260509081409 62 52 3.0 8.0 0.00 0.00 0.00 73 1016.1
20260509080910 61 44 2.0 5.0 0.00 0.00 0.00 73 1016.1
20260509080409 61 109 3.0 8.0 0.00 0.00 0.00 72 1016.2
20260509075909 61 82 3.0 7.0 0.00 0.00 0.00 73 1016.2
20260509075409 60 102 2.0 5.0 0.00 0.00 0.00 74 1016.2
20260509074910 60 47 2.0 5.0 0.00 0.00 0.00 75 1016.2
20260509073909 59 103 1.0 3.0 0.00 0.00 0.00 77 1016.2
20260509072909 58 46 2.0 6.0 0.00 0.00 0.00 78 1016.2
20260509072409 58 52 2.0 3.0 0.00 0.00 0.00 78 1016.2
20260509071909 58 81 1.0 3.0 0.00 0.00 0.00 78 1016.2
20260509071409 58 83 2.0 7.0 0.00 0.00 0.00 78 1016.3
20260509070410 57 48 2.0 3.0 0.00 0.00 0.00 80 1016.4
20260509065910 57 34 2.0 5.0 0.00 0.00 0.00 80 1016.4
20260509065409 56 63 2.0 3.0 0.00 0.00 0.00 80 1016.4
20260509064910 56 96 1.0 7.0 0.00 0.00 0.00 82 1016.4
20260509064409 55 38 1.0 3.0 0.00 0.00 0.00 83 1016.4
20260509063909 54 53 2.0 5.0 0.00 0.00 0.00 83 1016.4
20260509061909 52 66 2.0 3.0 0.00 0.00 0.00 86 1016.4
20260509061410 51 40 1.0 5.0 0.00 0.00 0.00 86 1016.3
20260509060909 50 72 2.0 5.0 0.00 0.00 0.00 87 1016.3
20260509055909 49 85 1.0 5.0 0.00 0.00 0.00 87 1016.3
20260509055410 49 50 1.0 3.0 0.00 0.00 0.00 87 1016.3
20260509054910 48 45 2.0 3.0 0.00 0.00 0.00 87 1016.2
20260509053909 48 39 2.0 3.0 0.00 0.00 0.00 88 1016.2
20260509053409 47 24 1.0 2.0 0.00 0.00 0.00 88 1016.2
20260509052909 47 38 0.0 2.0 0.00 0.00 0.00 88 1016.1
20260509052409 47 45 1.0 3.0 0.00 0.00 0.00 88 1016.1
20260509051909 47 63 0.0 2.0 0.00 0.00 0.00 88 1016.1
20260509050909 46 47 1.0 2.0 0.00 0.00 0.00 87 1016.0
20260509050410 46 66 0.0 2.0 0.00 0.00 0.00 87 1016.0
20260509045909 46 37 1.0 2.0 0.00 0.00 0.00 87 1016.0
20260509043910 47 40 1.0 2.0 0.00 0.00 0.00 86 1015.8
20260509043410 47 35 0.0 2.0 0.00 0.00 0.00 86 1015.8
20260509042410 47 59 0.0 0.0 0.00 0.00 0.00 86 1015.8
20260509041909 47 73 0.0 0.0 0.00 0.00 0.00 86 1015.9
20260509041409 48 98 0.0 0.0 0.00 0.00 0.00 85 1015.8
20260509040909 48 102 0.0 0.0 0.00 0.00 0.00 85 1015.8
20260509040409 48 103 0.0 0.0 0.00 0.00 0.00 85 1015.8
20260509035909 48 98 0.0 0.0 0.00 0.00 0.00 85 1015.8
20260509035410 48 49 0.0 2.0 0.00 0.00 0.00 85 1015.8
20260509034910 49 83 1.0 2.0 0.00 0.00 0.00 85 1015.8
20260509034410 49 39 0.0 3.0 0.00 0.00 0.00 85 1015.8
20260509033909 49 51 2.0 3.0 0.00 0.00 0.00 85 1015.8
20260509033409 49 42 2.0 5.0 0.00 0.00 0.00 85 1015.8
20260509032909 49 36 3.0 5.0 0.00 0.00 0.00 84 1015.8
20260509032409 49 47 3.0 5.0 0.00 0.00 0.00 84 1015.8